Вернуться в каталог

STARLINK-34976

АктивенСвязьVLEO
NORAD 65209·PAYLOAD·🇺🇸 United States

Запущен Aug 14, 2025 с Cape Canaveral Space Force Station

Loading…

Ближайшие Пролёты (ближайшие 24 часа)

TLE

СвежийSource: CelesTrak SupGP

Эпоха: Sep 14, 2026, 22:53 UTC

1 65209C 25176M   26257.95395833 -.00001611  00000+0 -47611-4 0  2570
2 65209  53.1591 349.6617 0001079  81.8593 268.7638 15.34390585    19

Отслеживайте STARLINK-34976 в реальном времени с AllMySat

Download on the App Store